Location: Andershausen
(51.8462°N, 9.8595°E)
Time: 03:16:53
(UTC+00:00)

Cosmos 2263 Rocket - Pass Details

Date: 18 November 2025
Orbit: 822 x 848 km, 71.0° (Epoch: 15 December)

Event Time Altitude Azimuth Distance (km) Brightness Sun altitude
Rises 17:57:15 0° 313° (NW) 3,378 6.0 -23.0°
Reaches altitude 10° 18:02:16 10° 352° (N) 2,452 4.7 -23.8°
Maximum altitude 18:03:24 11° 4° (N) 2,414 4.5 -24.0°
Enters shadow 18:04:21 10° 14° (NNE) 2,444 4.4 -24.1°
